Location: Schommer Observatory
(40.5200°N, 74.4500°W)
Time: 10:07:17
(UTC-04:00)

Tiangong 2 - Visible Passes

Search period start: 22 May 2018 00:00
Search period end: 01 June 2018 00:00
Orbit: 382 x 385 km, 42.8° (Epoch: 22 May)

Date Brightness Start Highest point End Pass type
(mag) Time Alt. Az. Time Alt. Az. Time Alt. Az.
22 May 0.9 22:07:03 10° WSW 22:10:12 88° SSE 22:10:50 54° ENE visible
23 May 1.1 21:07:20 10° WSW 21:10:26 57° SSE 21:13:32 10° ENE visible
23 May 2.0 22:44:05 10° W 22:46:39 47° NW 22:46:39 47° NW visible
24 May 1.3 21:44:12 10° W 21:47:21 68° N 21:49:55 14° ENE visible
24 May 3.6 23:21:08 10° WNW 23:22:07 18° WNW 23:22:07 18° WNW visible
25 May 1.0 20:44:21 10° WSW 20:47:31 88° SSE 20:50:40 10° ENE visible
25 May 1.7 22:21:16 10° WNW 22:24:22 53° N 22:25:09 40° NE visible
26 May 1.7 21:21:23 10° W 21:24:29 56° N 21:27:36 10° ENE visible
26 May 2.5 22:58:14 10° WNW 23:00:15 35° WNW 23:00:15 35° WNW visible
27 May 1.6 21:58:24 10° WNW 22:01:31 57° N 22:03:03 26° ENE visible
27 May 4.2 23:35:11 10° W 23:35:15 10° W 23:35:15 10° W visible
28 May 1.8 20:58:31 10° WNW 21:01:37 53° N 21:04:44 10° E visible
28 May 1.4 22:35:19 10° WNW 22:38:01 61° W 22:38:01 61° W visible
29 May 1.2 21:35:29 10° WNW 21:38:37 71° NNE 21:40:44 19° E visible
29 May 3.8 23:12:22 10° W 23:12:56 14° W 23:12:56 14° W visible
30 May 1.2 22:12:23 10° W 22:15:29 53° SSW 22:15:39 52° S visible
31 May 1.0 21:12:30 10° WNW 21:15:40 84° SSW 21:18:22 13° ESE visible
31 May 3.6 22:49:47 10° W 22:50:33 14° WSW 22:50:33 14° WSW visible
